| time (UTC) | temp C | wind direction | speed KPH | gust KPH | rain 1hr cm | rain 24hr cm | rain mn cm | humidity % | barometer mb |
| 20260906122019 | 22 | 103 | 3.2 | 14.5 | 0.00 | 0.25 | 0.00 | 98 | 1012.2 |
| 20260906120520 | 22 | 25 | 3.2 | 6.4 | 0.00 | 0.25 | 0.00 | 98 | 1012.1 |
| 20260906120034 | 22 | 67 | 3.2 | 9.7 | 0.00 | 0.25 | 0.00 | 99 | 1012.1 |
| 20260906115519 | 22 | 0 | 1.6 | 9.7 | 0.00 | 0.25 | 0.00 | 99 | 1012.1 |
| 20260906115017 | 22 | 86 | 1.6 | 9.7 | 0.00 | 0.25 | 0.00 | 99 | 1012.0 |
| 20260906112018 | 21 | 0 | 1.6 | 4.8 | 0.00 | 0.25 | 0.00 | 99 | 1011.6 |
| 20260906111020 | 21 | 48 | 0.0 | 4.8 | 0.00 | 0.25 | 0.00 | 99 | 1011.6 |
| 20260906110521 | 21 | 28 | 0.0 | 4.8 | 0.00 | 0.25 | 0.00 | 99 | 1011.5 |
| 20260906110037 | 21 | 0 | 0.0 | 3.2 | 0.00 | 0.25 | 0.00 | 99 | 1011.5 |
| 20260906105518 | 21 | 0 | 0.0 | 0.0 | 0.00 | 0.25 | 0.00 | 99 | 1011.5 |
| 20260906105019 | 21 | 0 | 0.0 | 0.0 | 0.00 | 0.25 | 0.00 | 99 | 1011.5 |
| 20260906104537 | 21 | 0 | 0.0 | 0.0 | 0.00 | 0.25 | 0.00 | 99 | 1011.4 |
| 20260906104016 | 21 | 0 | 0.0 | 0.0 | 0.00 | 0.25 | 0.00 | 99 | 1011.3 |
| 20260906102523 | 21 | 0 | 0.0 | 3.2 | 0.00 | 0.25 | 0.00 | 99 | 1011.3 |
| 20260906101020 | 21 | 30 | 3.2 | 4.8 | 0.00 | 0.25 | 0.00 | 99 | 1011.0 |
| 20260906100523 | 21 | 30 | 1.6 | 3.2 | 0.00 | 0.25 | 0.00 | 99 | 1011.0 |
| 20260906100037 | 21 | 30 | 0.0 | 1.6 | 0.00 | 0.25 | 0.00 | 99 | 1010.9 |
| 20260906095522 | 21 | 0 | 0.0 | 1.6 | 0.00 | 0.25 | 0.00 | 99 | 1010.8 |
| 20260906095019 | 21 | 0 | 0.0 | 1.6 | 0.00 | 0.25 | 0.00 | 99 | 1010.9 |
| 20260906094543 | 21 | 30 | 0.0 | 0.0 | 0.00 | 0.25 | 0.00 | 99 | 1010.7 |
| 20260906092520 | 21 | 0 | 0.0 | 1.6 | 0.00 | 0.25 | 0.00 | 99 | 1010.6 |
| 20260906092016 | 21 | 0 | 0.0 | 4.8 | 0.00 | 0.25 | 0.00 | 99 | 1010.7 |
| 20260906091538 | 21 | 0 | 0.0 | 4.8 | 0.00 | 0.25 | 0.00 | 99 | 1010.6 |
| 20260906091018 | 21 | 30 | 1.6 | 4.8 | 0.00 | 0.25 | 0.00 | 99 | 1010.6 |
| 20260906090519 | 21 | 30 | 1.6 | 4.8 | 0.00 | 0.25 | 0.00 | 99 | 1010.6 |
| 20260906085022 | 22 | 0 | 0.0 | 1.6 | 0.00 | 0.25 | 0.00 | 99 | 1010.8 |
| 20260906084025 | 22 | 30 | 0.0 | 4.8 | 0.00 | 0.25 | 0.00 | 99 | 1010.8 |
| 20260906083519 | 22 | 30 | 1.6 | 4.8 | 0.00 | 0.25 | 0.00 | 99 | 1010.7 |
| 20260906083045 | 22 | 91 | 0.0 | 6.4 | 0.00 | 0.25 | 0.00 | 99 | 1010.7 |
| 20260906082519 | 22 | 0 | 0.0 | 6.4 | 0.00 | 0.25 | 0.00 | 99 | 1010.8 |
| 20260906082019 | 22 | 26 | 3.2 | 6.4 | 0.00 | 0.25 | 0.00 | 99 | 1010.7 |
| 20260906081538 | 22 | 0 | 0.0 | 3.2 | 0.00 | 0.25 | 0.00 | 99 | 1010.7 |
| 20260906081016 | 22 | 0 | 0.0 | 6.4 | 0.00 | 0.25 | 0.00 | 99 | 1010.6 |
| 20260906075522 | 22 | 0 | 3.2 | 4.8 | 0.00 | 0.25 | 0.00 | 99 | 1010.7 |
| 20260906075020 | 22 | 0 | 0.0 | 1.6 | 0.00 | 0.25 | 0.00 | 99 | 1010.8 |
| 20260906074021 | 22 | 0 | 1.6 | 3.2 | 0.00 | 0.25 | 0.00 | 99 | 1010.7 |
| 20260906073520 | 22 | 0 | 0.0 | 3.2 | 0.00 | 0.25 | 0.00 | 99 | 1010.7 |
| 20260906073037 | 22 | 0 | 0.0 | 3.2 | 0.00 | 0.25 | 0.00 | 99 | 1010.7 |
| 20260906072518 | 22 | 311 | 1.6 | 3.2 | 0.00 | 0.25 | 0.00 | 99 | 1010.7 |
| 20260906072019 | 22 | 0 | 0.0 | 3.2 | 0.00 | 0.25 | 0.00 | 99 | 1010.8 |
| 20260906071536 | 22 | 0 | 0.0 | 3.2 | 0.00 | 0.25 | 0.00 | 99 | 1010.8 |
| 20260906071020 | 22 | 0 | 0.0 | 3.2 | 0.00 | 0.25 | 0.00 | 99 | 1010.9 |
| 20260906070518 | 22 | 0 | 0.0 | 4.8 | 0.00 | 0.25 | 0.00 | 99 | 1010.9 |
| 20260906065520 | 22 | 323 | 1.6 | 6.4 | 0.00 | 0.25 | 0.00 | 99 | 1010.9 |
| 20260906065019 | 22 | 323 | 1.6 | 9.7 | 0.00 | 0.25 | 0.00 | 99 | 1010.8 |
| 20260906064536 | 22 | 20 | 3.2 | 11.3 | 0.00 | 0.25 | 0.00 | 99 | 1010.8 |
| 20260906064017 | 22 | 340 | 4.8 | 11.3 | 0.00 | 0.25 | 0.00 | 99 | 1011.0 |
| 20260906063519 | 22 | 355 | 4.8 | 9.7 | 0.00 | 0.25 | 0.00 | 99 | 1011.1 |
| 20260906061020 | 22 | 0 | 1.6 | 8.0 | 0.00 | 0.25 | 0.00 | 99 | 1011.0 |
| 20260906060520 | 22 | 346 | 3.2 | 8.0 | 0.00 | 0.25 | 0.00 | 99 | 1011.2 |
| 20260906060044 | 22 | 331 | 4.8 | 8.0 | 0.00 | 0.25 | 0.00 | 99 | 1011.1 |
| 20260906055519 | 22 | 307 | 4.8 | 8.0 | 0.00 | 0.25 | 0.00 | 99 | 1011.1 |
| 20260906055019 | 22 | 333 | 1.6 | 8.0 | 0.00 | 0.25 | 0.00 | 99 | 1011.1 |
| 20260906054542 | 22 | 352 | 3.2 | 6.4 | 0.00 | 0.25 | 0.00 | 99 | 1011.2 |
| 20260906051021 | 23 | 311 | 4.8 | 14.5 | 0.00 | 0.25 | 0.00 | 99 | 1010.7 |
| 20260906050525 | 23 | 307 | 6.4 | 14.5 | 0.00 | 0.25 | 0.00 | 99 | 1010.7 |
| 20260906050040 | 23 | 312 | 6.4 | 12.9 | 0.00 | 0.25 | 0.00 | 98 | 1010.8 |
| 20260906045521 | 23 | 330 | 4.8 | 9.7 | 0.00 | 0.25 | 0.00 | 98 | 1010.8 |
| 20260906045018 | 23 | 5 | 3.2 | 6.4 | 0.00 | 0.25 | 0.00 | 98 | 1011.0 |
| 20260906044537 | 23 | 305 | 1.6 | 4.8 | 0.00 | 0.25 | 0.00 | 99 | 1010.9 |
| 20260906044020 | 23 | 302 | 1.6 | 6.4 | 0.00 | 0.25 | 0.00 | 99 | 1011.1 |
| 20260906043516 | 23 | 0 | 1.6 | 9.7 | 0.00 | 0.25 | 0.00 | 99 | 1011.2 |
| 20260906042521 | 23 | 312 | 1.6 | 6.4 | 0.00 | 0.25 | 0.00 | 99 | 1011.4 |
| 20260906042020 | 23 | 0 | 0.0 | 4.8 | 0.00 | 0.25 | 0.00 | 99 | 1011.5 |
| 20260906041539 | 23 | 250 | 0.0 | 4.8 | 0.00 | 0.25 | 0.00 | 99 | 1011.6 |
| 20260906041020 | 23 | 0 | 1.6 | 4.8 | 0.00 | 0.25 | 0.00 | 99 | 1011.7 |
| 20260906040518 | 23 | 215 | 1.6 | 4.8 | 0.00 | 0.25 | 0.00 | 99 | 1012.0 |
| 20260906040038 | 23 | 273 | 0.0 | 4.8 | 0.00 | 0.25 | 0.00 | 99 | 1011.8 |
| 20260906034018 | 23 | 0 | 0.0 | 3.2 | 0.00 | 0.25 | 0.25 | 99 | 1011.9 |
| 20260906033518 | 23 | 0 | 0.0 | 4.8 | 0.00 | 0.25 | 0.25 | 99 | 1012.0 |
| 20260906032517 | 22 | 273 | 1.6 | 4.8 | 0.00 | 0.25 | 0.25 | 99 | 1012.1 |
| 20260906032021 | 23 | 0 | 0.0 | 3.2 | 0.00 | 0.25 | 0.25 | 99 | 1012.1 |
| 20260906031539 | 22 | 0 | 0.0 | 3.2 | 0.00 | 0.25 | 0.25 | 99 | 1012.3 |
| 20260906031018 | 22 | 273 | 0.0 | 3.2 | 0.00 | 0.25 | 0.25 | 99 | 1012.5 |
| 20260906030519 | 22 | 273 | 0.0 | 4.8 | 0.00 | 0.25 | 0.25 | 99 | 1012.3 |
| 20260906030039 | 22 | 0 | 0.0 | 4.8 | 0.00 | 0.25 | 0.25 | 98 | 1012.3 |
| 20260906024022 | 22 | 0 | 0.0 | 3.2 | 0.00 | 0.25 | 0.25 | 99 | 1012.1 |
| 20260906023518 | 22 | 119 | 0.0 | 4.8 | 0.00 | 0.25 | 0.25 | 98 | 1012.0 |
| 20260906022520 | 22 | 0 | 0.0 | 8.0 | 0.00 | 0.25 | 0.25 | 98 | 1012.2 |
| 20260906022018 | 22 | 212 | 1.6 | 8.0 | 0.00 | 0.25 | 0.25 | 98 | 1011.9 |
| 20260906021542 | 22 | 171 | 1.6 | 8.0 | 0.00 | 0.25 | 0.25 | 98 | 1012.0 |
| 20260906021020 | 22 | 0 | 0.0 | 4.8 | 0.00 | 0.25 | 0.25 | 98 | 1012.1 |
| 20260906020518 | 22 | 0 | 0.0 | 4.8 | 0.00 | 0.25 | 0.25 | 98 | 1012.4 |
| 20260906020039 | 22 | 184 | 0.0 | 4.8 | 0.00 | 0.25 | 0.25 | 98 | 1012.3 |
| 20260906014018 | 22 | 0 | 1.6 | 4.8 | 0.00 | 0.25 | 0.25 | 98 | 1012.7 |
| 20260906013518 | 22 | 102 | 1.6 | 4.8 | 0.00 | 0.25 | 0.25 | 98 | 1012.8 |
| 20260906013034 | 22 | 0 | 0.0 | 4.8 | 0.00 | 0.25 | 0.25 | 98 | 1012.7 |
| 20260906012516 | 22 | 0 | 1.6 | 6.4 | 0.00 | 0.25 | 0.25 | 98 | 1012.6 |
| 20260906010521 | 22 | 0 | 4.8 | 16.1 | 0.00 | 0.25 | 0.25 | 98 | 1012.2 |
| 20260906005520 | 22 | 100 | 4.8 | 12.9 | 0.00 | 0.25 | 0.25 | 98 | 1011.9 |
| 20260906005020 | 22 | 98 | 3.2 | 9.7 | 0.00 | 0.25 | 0.25 | 98 | 1011.5 |
| 20260906004549 | 22 | 91 | 1.6 | 9.7 | 0.00 | 0.25 | 0.25 | 98 | 1011.4 |
| 20260906004022 | 22 | 80 | 4.8 | 9.7 | 0.00 | 0.25 | 0.25 | 98 | 1011.4 |
| 20260906003518 | 22 | 78 | 3.2 | 4.8 | 0.00 | 0.25 | 0.25 | 97 | 1011.5 |
| 20260906003035 | 23 | 0 | 1.6 | 4.8 | 0.00 | 0.25 | 0.25 | 97 | 1011.6 |
| 20260906002019 | 23 | 0 | 0.0 | 4.8 | 0.00 | 0.25 | 0.25 | 97 | 1011.4 |
| 20260906001018 | 22 | 202 | 1.6 | 4.8 | 0.03 | 0.25 | 0.25 | 97 | 1011.3 |
| 20260906000520 | 22 | 0 | 1.6 | 4.8 | 0.05 | 0.25 | 0.25 | 97 | 1011.0 |
| 20260905235517 | 23 | 86 | 0.0 | 6.4 | 0.10 | 0.25 | 0.25 | 96 | 1011.1 |
| 20260905235021 | 22 | 0 | 1.6 | 6.4 | 0.15 | 0.25 | 0.25 | 96 | 1011.3 |
| 20260905234539 | 22 | 0 | 0.0 | 11.3 | 0.25 | 0.25 | 0.25 | 96 | 1011.6 |
| 20260905234018 | 22 | 0 | 1.6 | 14.5 | 0.25 | 0.25 | 0.25 | 96 | 1011.5 |
| 20260905232523 | 22 | 178 | 4.8 | 9.7 | 0.25 | 0.25 | 0.25 | 94 | 1011.8 |
| 20260905231024 | 23 | 0 | 1.6 | 11.3 | 0.23 | 0.23 | 0.23 | 94 | 1012.1 |
| 20260905230520 | 23 | 257 | 3.2 | 24.1 | 0.20 | 0.20 | 0.20 | 92 | 1012.5 |
| 20260905230041 | 23 | 0 | 8.0 | 29.0 | 0.15 | 0.15 | 0.15 | 92 | 1012.8 |
| 20260905225520 | 25 | 55 | 14.5 | 48.3 | 0.15 | 0.15 | 0.15 | 88 | 1012.6 |
| 20260905225018 | 26 | 344 | 19.3 | 49.9 | 0.08 | 0.08 | 0.08 | 82 | 1012.9 |
| 20260905224021 | 28 | 28 | 12.9 | 27.4 | 0.00 | 0.00 | 0.00 | 90 | 1012.7 |
| 20260905223519 | 28 | 300 | 4.8 | 19.3 | 0.00 | 0.00 | 0.00 | 90 | 1011.1 |
| 20260905223048 | 28 | 191 | 6.4 | 20.9 | 0.00 | 0.00 | 0.00 | 89 | 1010.3 |
| 20260905222517 | 29 | 218 | 9.7 | 20.9 | 0.00 | 0.00 | 0.00 | 89 | 1010.0 |
| 20260905222018 | 29 | 225 | 8.0 | 16.1 | 0.00 | 0.00 | 0.00 | 88 | 1010.2 |
| 20260905221542 | 29 | 196 | 4.8 | 12.9 | 0.00 | 0.00 | 0.00 | 87 | 1010.7 |
| 20260905221019 | 30 | 243 | 3.2 | 19.3 | 0.00 | 0.00 | 0.00 | 87 | 1010.7 |
| 20260905220519 | 30 | 229 | 9.7 | 19.3 | 0.00 | 0.00 | 0.00 | 86 | 1010.1 |
| 20260905215520 | 30 | 185 | 4.8 | 16.1 | 0.00 | 0.00 | 0.00 | 84 | 1010.0 |
| 20260905215019 | 30 | 164 | 8.0 | 16.1 | 0.00 | 0.00 | 0.00 | 83 | 1010.2 |
| 20260905214544 | 31 | 194 | 8.0 | 24.1 | 0.00 | 0.00 | 0.00 | 82 | 1009.9 |
| 20260905213519 | 32 | 239 | 8.0 | 14.5 | 0.00 | 0.00 | 0.00 | 79 | 1009.9 |
| 20260905212524 | 32 | 206 | 4.8 | 17.7 | 0.00 | 0.00 | 0.00 | 80 | 1009.9 |
| 20260905212019 | 31 | 242 | 8.0 | 17.7 | 0.00 | 0.00 | 0.00 | 80 | 1009.9 |
| 20260905211020 | 32 | 192 | 8.0 | 16.1 | 0.00 | 0.00 | 0.00 | 80 | 1010.1 |
| 20260905210521 | 32 | 183 | 6.4 | 14.5 | 0.00 | 0.00 | 0.00 | 80 | 1010.2 |
| 20260905210050 | 32 | 249 | 8.0 | 19.3 | 0.00 | 0.00 | 0.00 | 79 | 1010.1 |
| 20260905205518 | 32 | 300 | 6.4 | 19.3 | 0.00 | 0.00 | 0.00 | 80 | 1009.9 |
| 20260905205019 | 32 | 276 | 6.4 | 17.7 | 0.00 | 0.00 | 0.00 | 79 | 1009.8 |
| 20260905202520 | 32 | 206 | 9.7 | 22.5 | 0.00 | 0.00 | 0.00 | 79 | 1009.7 |
| 20260905202020 | 32 | 202 | 8.0 | 22.5 | 0.00 | 0.00 | 0.00 | 78 | 1009.8 |
| 20260905201018 | 32 | 185 | 11.3 | 24.1 | 0.00 | 0.00 | 0.00 | 78 | 1010.0 |
| 20260905200520 | 32 | 194 | 8.0 | 22.5 | 0.00 | 0.00 | 0.00 | 77 | 1010.0 |
| 20260905195520 | 32 | 225 | 12.9 | 19.3 | 0.00 | 0.00 | 0.00 | 77 | 1010.0 |
| 20260905195020 | 32 | 279 | 6.4 | 19.3 | 0.00 | 0.00 | 0.00 | 77 | 1010.0 |
| 20260905194538 | 32 | 187 | 11.3 | 20.9 | 0.00 | 0.00 | 0.00 | 77 | 1010.0 |
| 20260905194020 | 32 | 182 | 8.0 | 22.5 | 0.00 | 0.00 | 0.00 | 78 | 1010.0 |
| 20260905193518 | 32 | 165 | 11.3 | 22.5 | 0.00 | 0.00 | 0.00 | 78 | 1010.1 |
| 20260905192021 | 32 | 192 | 12.9 | 25.7 | 0.00 | 0.00 | 0.00 | 78 | 1010.4 |
| 20260905191020 | 32 | 238 | 12.9 | 27.4 | 0.00 | 0.00 | 0.00 | 78 | 1010.7 |
| 20260905190518 | 32 | 194 | 12.9 | 24.1 | 0.00 | 0.00 | 0.00 | 77 | 1010.7 |
| 20260905185519 | 33 | 221 | 11.3 | 20.9 | 0.00 | 0.00 | 0.00 | 75 | 1010.9 |
| 20260905185019 | 33 | 202 | 11.3 | 24.1 | 0.00 | 0.00 | 0.00 | 74 | 1010.9 |
| 20260905184549 | 33 | 165 | 8.0 | 24.1 | 0.00 | 0.00 | 0.00 | 74 | 1011.0 |
| 20260905184018 | 33 | 202 | 11.3 | 22.5 | 0.00 | 0.00 | 0.00 | 74 | 1011.1 |
| 20260905183518 | 33 | 205 | 9.7 | 19.3 | 0.00 | 0.00 | 0.00 | 73 | 1011.2 |
| 20260905182521 | 33 | 217 | 6.4 | 17.7 | 0.00 | 0.00 | 0.00 | 75 | 1011.2 |
| 20260905182023 | 33 | 201 | 9.7 | 17.7 | 0.00 | 0.00 | 0.00 | 74 | 1011.3 |
| 20260905181545 | 33 | 217 | 6.4 | 17.7 | 0.00 | 0.00 | 0.00 | 75 | 1011.4 |
| 20260905181018 | 33 | 187 | 4.8 | 17.7 | 0.00 | 0.00 | 0.00 | 75 | 1011.4 |
| 20260905180517 | 33 | 243 | 6.4 | 17.7 | 0.00 | 0.00 | 0.00 | 74 | 1011.5 |
| 20260905175525 | 34 | 236 | 4.8 | 14.5 | 0.00 | 0.00 | 0.00 | 72 | 1011.7 |
| 20260905175017 | 34 | 219 | 3.2 | 14.5 | 0.00 | 0.00 | 0.00 | 73 | 1011.7 |
| 20260905174018 | 34 | 30 | 4.8 | 11.3 | 0.00 | 0.00 | 0.00 | 70 | 1011.9 |
| 20260905173521 | 34 | 285 | 3.2 | 14.5 | 0.00 | 0.00 | 0.00 | 69 | 1011.9 |
| 20260905172519 | 33 | 290 | 4.8 | 16.1 | 0.00 | 0.00 | 0.00 | 69 | 1011.9 |
| 20260905172021 | 33 | 226 | 4.8 | 16.1 | 0.00 | 0.00 | 0.00 | 70 | 1012.0 |
| 20260905171019 | 33 | 342 | 4.8 | 12.9 | 0.00 | 0.00 | 0.00 | 69 | 1012.0 |
| 20260905165023 | 33 | 278 | 6.4 | 12.9 | 0.00 | 0.00 | 0.00 | 71 | 1012.4 |
| 20260905164022 | 33 | 284 | 6.4 | 14.5 | 0.00 | 0.00 | 0.00 | 71 | 1012.6 |
| 20260905163524 | 33 | 229 | 3.2 | 14.5 | 0.00 | 0.00 | 0.00 | 73 | 1012.6 |
| 20260905161540 | 32 | 302 | 6.4 | 14.5 | 0.00 | 0.00 | 0.00 | 75 | 1013.0 |
| 20260905161023 | 32 | 0 | 3.2 | 16.1 | 0.00 | 0.00 | 0.00 | 77 | 1013.0 |
| 20260905160520 | 31 | 208 | 8.0 | 17.7 | 0.00 | 0.00 | 0.00 | 76 | 1013.2 |
| 20260905155521 | 31 | 260 | 6.4 | 19.3 | 0.00 | 0.00 | 0.00 | 78 | 1013.2 |
| 20260905155019 | 31 | 274 | 6.4 | 17.7 | 0.00 | 0.00 | 0.00 | 77 | 1013.2 |
| 20260905154537 | 31 | 304 | 8.0 | 16.1 | 0.00 | 0.00 | 0.00 | 78 | 1013.4 |
| 20260905154017 | 31 | 315 | 8.0 | 17.7 | 0.00 | 0.00 | 0.00 | 79 | 1013.5 |
| 20260905152523 | 30 | 5 | 8.0 | 17.7 | 0.00 | 0.00 | 0.00 | 81 | 1013.6 |
| 20260905152018 | 30 | 325 | 9.7 | 16.1 | 0.00 | 0.00 | 0.00 | 81 | 1013.6 |
| 20260905151023 | 30 | 296 | 8.0 | 17.7 | 0.00 | 0.00 | 0.00 | 82 | 1013.6 |
| 20260905150524 | 30 | 290 | 4.8 | 17.7 | 0.00 | 0.00 | 0.00 | 83 | 1013.6 |
| 20260905150040 | 30 | 294 | 9.7 | 17.7 | 0.00 | 0.00 | 0.00 | 83 | 1013.7 |
| 20260905145520 | 30 | 297 | 6.4 | 17.7 | 0.00 | 0.00 | 0.00 | 83 | 1013.6 |
| 20260905145018 | 30 | 279 | 4.8 | 17.7 | 0.00 | 0.00 | 0.00 | 85 | 1013.7 |
| 20260905142525 | 29 | 9 | 6.4 | 16.1 | 0.00 | 0.00 | 0.00 | 87 | 1013.7 |
| 20260905142019 | 28 | 283 | 6.4 | 14.5 | 0.00 | 0.00 | 0.00 | 87 | 1013.7 |
| 20260905141538 | 28 | 323 | 6.4 | 14.5 | 0.00 | 0.00 | 0.00 | 88 | 1013.8 |
| 20260905135521 | 28 | 228 | 4.8 | 17.7 | 0.00 | 0.00 | 0.00 | 90 | 1013.9 |
| 20260905135021 | 28 | 330 | 6.4 | 17.7 | 0.00 | 0.00 | 0.00 | 90 | 1013.8 |
| 20260905134020 | 27 | 274 | 4.8 | 14.5 | 0.00 | 0.00 | 0.00 | 91 | 1013.9 |
| 20260905133521 | 27 | 275 | 6.4 | 16.1 | 0.00 | 0.00 | 0.00 | 92 | 1013.9 |
| 20260905133039 | 27 | 355 | 8.0 | 17.7 | 0.00 | 0.00 | 0.00 | 92 | 1013.8 |
| 20260905132519 | 27 | 320 | 8.0 | 17.7 | 0.00 | 0.00 | 0.00 | 92 | 1013.9 |
| 20260905132019 | 27 | 322 | 3.2 | 8.0 | 0.00 | 0.00 | 0.00 | 94 | 1014.0 |
| 20260905125518 | 26 | 319 | 8.0 | 17.7 | 0.00 | 0.00 | 0.00 | 96 | 1014.1 |
| 20260905125022 | 26 | 309 | 6.4 | 17.7 | 0.00 | 0.00 | 0.00 | 96 | 1014.2 |
| 20260905124020 | 26 | 240 | 3.2 | 16.1 | 0.00 | 0.00 | 0.00 | 97 | 1014.2 |
| 20260905123525 | 26 | 286 | 4.8 | 16.1 | 0.00 | 0.00 | 0.00 | 97 | 1014.1 |